Vertical_Velocity
-1 1 -2 -1 -1 0 1 -2 -2 -0 5 2 5 2 1 -1 -2 -1 -1 0 -2 -2 0 1 -0 -1 -3 -0 -4 2 -1 -2 -0 -9 -2 20 -5 -11 9 7 2 1 -1
1 1 -2 -1 2 -4 -2 -1 -3 -1 -3 -3 -2 -2 -3 -3 -4 -3 -2 -1 -2 -3 -0 -2 3 -0 -2 1 -1 -1 1 -2 0 1 2 23 4 -3 -9 -1 4 -1 2
0 -4 0 -3 -2 -1 -2 -0 -5 -3 -3 -3 -2 -0 -4 -3 0 1 1 -1 -3 -2 1 -1 -3 2 -2 1 1 -0 3 -1 -2 4 -1 9 6 -2 15 -5 -10 -2 -0
-2 -1 -3 -2 -1 -3 -3 -4 -2 2 1 1 -1 0 -4 -1 -5 -2 -3 -0 -0 1 3 -7 -0 3 -2 1 -4 -5 1 2 -2 2 0 1 -6 3 2 -0 4 6 -0
2 -2 2 1 1 0 -1 -1 -1 0 3 2 2 0 -1 1 -5 0 0 -0 -2 -0 -0 -0 -2 -0 -3 -4 -1 -4 1 -2 -1 -4 -0 -1 -1 -5 -2 2 -2 -3 -1
0 -1 -2 1 -0 -0 -1 -1 -0 1 3 1 -1 3 1 1 -4 -1 1 2 -4 -1 -1 -0 -1 1 -4 -4 3 2 5 -0 -0 -2 -1 -2 -2 2 2 -6 -6 -17 -6
-3 -2 -2 0 -1 0 -1 -1 -1 -2 0 3 -1 -1 -1 -1 -2 -3 -1 2 1 2 -2 -1 1 1 -6 1 -2 3 -2 0 2 2 -2 -3 -1 -3 -1 -0 1 -6 6
-2 -2 -1 -1 0 -1 -2 -1 -1 -2 -2 3 4 2 -1 -1 -1 2 -3 -1 -2 1 3 2 -0 -1 1 -5 -1 -2 -3 -0 -1 1 0 -0 -2 -1 -4 0 -2 -0 3
-2 -3 -1 -1 -2 -1 0 1 -2 -3 -3 -0 2 3 4 2 4 1 -0 1 -2 -0 -1 -1 1 1 0 -5 5 -2 -3 -1 -1 -2 -1 -0 0 1 -1 1 -0 1 -6
-2 -2 -2 -1 -1 -1 -2 -1 -1 -1 -2 -3 -4 -2 -1 2 1 7 3 1 -1 0 1 -0 -2 2 0 1 -3 -0 -2 -1 -1 0 1 -1 -2 0 0 1 -1 1 -1
-3 -2 -1 -2 -2 -1 -1 -0 0 -1 -1 -1 -2 -1 0 -1 -2 -5 -0 5 3 1 -0 1 3 -0 1 0 -2 -2 -1 -1 0 -2 1 1 -1 -2 -2 1 1 -0 -2
0 1 0 0 1 -0 -2 -0 -1 -1 -1 -1 -2 -3 -1 1 1 1 -0 -0 -3 4 2 -0 0 1 2 0 -2 -0 -2 -2 -2 -2 -2 -1 3 1 1 0 -1 -2 -2
-3 -4 -2 -2 -1 -1 -1 -0 -2 -2 -1 -1 -1 -1 -1 -1 -2 -2 -3 -2 1 2 0 1 -1 -1 -1 -0 -1 2 2 1 2 0 -1 0 -1 -1 2 -1 -1 2 1
-3 -3 -2 -3 -1 -2 -3 -1 -2 -1 -2 -2 -1 -1 -1 0 -0 -1 -1 -2 1 2 1 -2 1 1 0 0 -2 0 -0 0 -0 -0 3 2 1 -1 -3 3 2 -3 -1
-2 -2 -2 0 1 1 -1 -2 -2 -1 -2 -0 -1 -1 -0 -1 -0 -1 -1 -1 -4 -7 4 3 -0 -1 1 -1 -3 -0 -1 -1 -2 -0 -3 -4 -2 2 1 -1 -3 1 -0
0 -0 -1 -2 -0 -1 0 -1 -3 -1 -2 -2 -2 -2 -3 -2 -1 -1 -1 -0 -2 -3 -4 -4 0 -1 -1 -0 -1 -1 -2 -2 -3 -3 -5 -5 -4 -5 -6 -5 -1 -1 -1
-4 -3 -2 -2 -1 -1 -1 -1 -1 -1 -2 -1 -2 -2 -2 -2 -2 -1 -1 -1 -1 -5 -4 6 -1 -1 0 -2 2 1 -2 -3 -1 -1 -5 -6 -4 -5 -5 -5 -7 -7 -3
-4 -1 -2 -2 0 0 0 -1 -1 -1 -1 -2 -1 -1 -1 -1 -2 -2 -1 -2 -2 -2 -6 -3 -1 -1 -2 -0 -5 -4 0 2 1 -1 -3 -3 -4 -5 -3 -8 -9 -7 -11
-1 -2 -1 -3 -2 -3 1 1 0 -1 -2 -1 -1 -1 -1 -2 -2 -3 -0 -1 -2 -2 -3 -6 -3 -2 -2 -5 0 -2 -4 -5 -5 -4 -3 -1 -2 -3 -3 -5 -5 -8 -9
-2 -2 -2 -3 -1 -1 1 -0 -1 0 -0 -1 -0 -1 -2 -2 -3 -1 -1 -2 -2 -0 -1 -2 -0 -2 -3 1 -2 -8 0 1 -1 -0 -3 -5 -4 -3 -3 -5 -4 -5 -8
-1 -2 -0 -0 -2 -4 2 1 -0 0 1 -1 -1 -1 -1 -2 -3 -3 -2 -1 -2 -3 -2 -2 1 -1 -1 1 -5 -1 -3 -6 -3 -6 -6 -2 -7 -5 0 -1 -7 -7 -5
0 0 -1 -1 0 -2 -1 1 -0 0 0 -1 -0 -1 -1 -2 -3 -2 -4 -4 -4 -8 -6 -8 -5 -6 -3 -3 -2 -4 -4 -4 -5 9 -3 -0 -2 3 -3 -4 -4 -4 -10
0 -0 -1 -0 2 0 -1 -1 0 -1 1 -1 -0 -0 -0 -1 -1 -0 -1 -1 -0 -0 -5 -7 -6 -3 -5 -4 -4 -5 -1 -3 -1 2 -2 -8 -1 -10 -5 -3 6 1 -5
-0 -0 -1 -1 1 0 0 1 2 -2 1 -0 -1 -1 -1 -2 -1 -1 -1 1 1 -1 -3 -1 -5 -5 -5 -3 -5 -6 -5 -3 -3 -2 -2 -7 -3 -4 -6 -2 2 -3 5
-1 -2 -1 -2 1 2 -3 -2 1 -0 0 0 -1 -1 -1 -2 -1 -2 -3 -2 -0 1 1 -2 -4 -4 -4 -3 -4 -6 -3 -6 -5 -4 5 -1 -2 -10 -3 -3 2 6 -3
-1 -1 -0 0 -1 2 -2 -3 -1 -1 0 -1 1 0 -0 -0 -2 -2 -3 -1 -2 -3 -1 3 3 1 -4 -2 -4 -3 -3 -6 -5 -5 11 -9 -6 -6 -38 19 -6 1 -2
Height
3194 3192 3189 3187 3185 3182 3181 3178 3176 3174 3172 3170 3168 3166 3164 3161 3158 3157 3155 3154 3152 3150 3150 3149 3148 3148 3148 3149 3146 3149 3148 3148 3148 3149 3149 3148 3155 3156 3162 3166 3169 3172 3173
3190 3188 3187 3185 3182 3179 3177 3174 3171 3171 3169 3166 3164 3162 3160 3157 3155 3153 3150 3148 3146 3146 3146 3144 3143 3142 3142 3143 3141 3143 3142 3143 3142 3144 3145 3144 3146 3151 3155 3158 3163 3165 3168
3188 3187 3184 3181 3179 3175 3172 3170 3167 3166 3164 3163 3162 3159 3154 3152 3152 3146 3146 3145 3143 3144 3143 3141 3139 3139 3138 3138 3136 3136 3136 3137 3138 3139 3141 3139 3140 3144 3146 3149 3154 3157 3161
3185 3182 3180 3177 3174 3172 3169 3166 3165 3164 3161 3160 3158 3155 3150 3150 3147 3144 3142 3139 3139 3137 3138 3136 3135 3136 3134 3132 3130 3130 3131 3132 3132 3133 3133 3135 3135 3135 3138 3139 3142 3148 3153
3183 3178 3176 3174 3171 3168 3166 3164 3163 3163 3160 3157 3154 3150 3148 3146 3142 3140 3137 3136 3135 3133 3132 3131 3129 3129 3126 3124 3125 3124 3126 3126 3126 3127 3128 3128 3130 3131 3132 3132 3132 3136 3142
3179 3176 3172 3171 3168 3166 3164 3161 3159 3158 3158 3155 3150 3148 3145 3143 3139 3138 3134 3133 3131 3129 3127 3125 3124 3122 3119 3117 3118 3118 3120 3120 3119 3120 3120 3121 3123 3125 3127 3128 3128 3131 3134
3175 3173 3169 3168 3166 3164 3162 3159 3155 3154 3154 3152 3148 3144 3143 3139 3136 3133 3130 3129 3126 3124 3123 3119 3118 3115 3111 3111 3112 3112 3113 3113 3112 3112 3113 3116 3117 3118 3120 3121 3123 3125 3127
3173 3169 3167 3164 3162 3161 3158 3155 3153 3150 3149 3150 3147 3141 3138 3136 3131 3130 3127 3125 3122 3120 3119 3114 3112 3109 3108 3102 3103 3107 3106 3104 3106 3105 3106 3108 3110 3111 3112 3114 3118 3120 3122
3170 3167 3164 3162 3159 3157 3156 3154 3151 3149 3145 3143 3141 3140 3136 3134 3130 3127 3123 3122 3118 3116 3113 3110 3107 3105 3103 3098 3097 3099 3098 3098 3097 3098 3099 3099 3102 3104 3106 3107 3110 3113 3115
3168 3165 3162 3160 3158 3155 3153 3150 3148 3146 3143 3139 3135 3132 3129 3128 3128 3127 3121 3117 3114 3112 3108 3105 3102 3101 3098 3096 3092 3092 3091 3091 3091 3091 3091 3092 3092 3094 3097 3100 3102 3104 3106
3166 3164 3161 3158 3155 3151 3149 3146 3144 3141 3139 3136 3133 3129 3125 3121 3117 3117 3116 3115 3110 3106 3103 3100 3098 3095 3093 3091 3088 3086 3084 3084 3084 3083 3084 3085 3085 3086 3087 3089 3092 3094 3096
3163 3161 3157 3155 3151 3148 3145 3143 3140 3137 3134 3132 3128 3125 3122 3119 3114 3110 3107 3104 3104 3102 3098 3094 3092 3089 3087 3084 3082 3081 3079 3076 3076 3076 3075 3076 3077 3078 3078 3079 3081 3083 3085
3160 3157 3154 3151 3148 3145 3141 3139 3136 3133 3130 3128 3125 3121 3117 3114 3110 3105 3101 3098 3096 3094 3092 3087 3085 3083 3081 3077 3074 3073 3073 3071 3069 3067 3067 3066 3066 3067 3068 3068 3069 3071 3073
3157 3153 3150 3147 3144 3141 3137 3135 3132 3129 3125 3122 3119 3116 3113 3109 3104 3100 3095 3091 3089 3087 3086 3081 3078 3075 3073 3070 3067 3065 3063 3061 3059 3059 3057 3056 3056 3056 3056 3057 3059 3059 3061
3154 3149 3146 3143 3140 3137 3133 3130 3127 3124 3120 3116 3113 3110 3107 3103 3099 3095 3090 3085 3079 3075 3077 3076 3072 3068 3064 3061 3058 3055 3054 3052 3049 3047 3046 3044 3044 3045 3046 3045 3045 3046 3047
3149 3146 3142 3138 3135 3132 3129 3126 3121 3119 3115 3111 3107 3104 3101 3098 3094 3090 3085 3081 3075 3069 3065 3064 3064 3061 3057 3052 3049 3046 3043 3040 3039 3037 3034 3032 3031 3030 3029 3030 3031 3032 3031
3144 3140 3137 3133 3130 3126 3123 3120 3116 3113 3109 3105 3101 3098 3095 3092 3088 3084 3080 3074 3070 3065 3059 3058 3054 3051 3049 3045 3043 3038 3034 3032 3030 3027 3024 3021 3018 3016 3015 3014 3012 3014 3016
3140 3136 3132 3128 3124 3121 3117 3114 3111 3107 3103 3099 3095 3092 3088 3085 3081 3077 3073 3068 3063 3058 3052 3048 3046 3042 3040 3035 3031 3030 3028 3023 3018 3017 3014 3010 3008 3005 3001 2999 2997 2996 2996
3134 3130 3126 3122 3119 3115 3111 3108 3104 3101 3097 3092 3088 3085 3081 3078 3075 3070 3066 3061 3056 3050 3044 3038 3036 3033 3029 3025 3021 3017 3013 3012 3011 3009 3005 3001 2998 2994 2991 2987 2984 2983 2981
3127 3123 3119 3116 3113 3109 3105 3101 3098 3094 3090 3086 3081 3077 3073 3069 3067 3063 3059 3053 3048 3043 3037 3031 3027 3024 3020 3017 3010 3004 3003 3001 2997 2998 2993 2987 2986 2982 2980 2977 2973 2970 2966
3120 3117 3113 3109 3106 3103 3099 3094 3091 3088 3084 3079 3074 3070 3065 3061 3058 3054 3050 3045 3039 3033 3027 3022 3018 3013 3009 3004 2998 2994 2987 2982 2981 2983 2976 2974 2973 2969 2968 2965 2962 2958 2953
3114 3110 3106 3102 3099 3096 3092 3088 3083 3080 3076 3072 3068 3063 3058 3054 3050 3045 3040 3036 3030 3023 3018 3011 3008 3002 2998 2992 2987 2982 2976 2971 2965 2974 2964 2959 2961 2954 2954 2951 2949 2944 2939
3107 3103 3099 3095 3092 3090 3086 3081 3076 3073 3069 3064 3060 3056 3052 3047 3043 3038 3033 3029 3024 3017 3009 3002 2996 2992 2986 2981 2975 2971 2967 2961 2956 2957 2951 2942 2948 2942 2942 2940 2938 2932 2926
3100 3096 3092 3088 3084 3082 3079 3074 3070 3065 3062 3057 3053 3048 3044 3039 3035 3030 3027 3022 3018 3011 3004 2998 2991 2985 2979 2972 2966 2960 2954 2949 2945 2946 2943 2929 2935 2929 2928 2929 2925 2920 2915
3092 3088 3085 3081 3077 3075 3071 3066 3062 3057 3054 3050 3045 3041 3036 3032 3026 3021 3016 3012 3008 3003 2997 2990 2983 2977 2971 2965 2958 2951 2946 2940 2934 2934 2936 2921 2923 2915 2916 2915 2912 2909 2902
3085 3081 3077 3073 3069 3066 3064 3058 3053 3049 3046 3043 3039 3033 3029 3024 3019 3013 3007 3002 2997 2991 2985 2981 2977 2970 2963 2957 2951 2945 2937 2930 2925 2921 2926 2914 2912 2907 2900 2904 2899 2896 2891